AAL768 KCLT-KOKC

Flight info

Callsign AAL768
Flight time 2h 9m
Altitude 30000
Route BOBZY5 BNA J46 PLIED DRLER MURAH3
Aircraft B738/M-SDE2E3FGHIRWXY/LB1

Departure

Time 2026-04-26 22:12
Airport Charlotte Douglas International Airport (KCLT)

Arrival

Time 2026-04-27 00:21
Airport OKC Will Rogers World Airport (KOKC)
Time Latitude Longitude Altitude Speed Heading
2026-04-26 21:32 35.22120 -80.94083 746 ft 0 kts 219°
2026-04-26 21:33 35.22117 -80.94087 743 ft 0 kts 219°
2026-04-26 21:34 35.22110 -80.94076 747 ft 0 kts 219°
2026-04-26 21:34 35.22110 -80.94088 744 ft 0 kts 186°
2026-04-26 21:35 35.22108 -80.94074 746 ft 0 kts 186°
2026-04-26 21:36 35.22117 -80.94087 743 ft 0 kts 219°
2026-04-26 22:00 35.22123 -80.94081 743 ft 4 kts 219°
2026-04-26 22:00 35.22144 -80.94060 742 ft 4 kts 219°
2026-04-26 22:00 35.22166 -80.94040 743 ft 4 kts 213°
2026-04-26 22:01 35.22189 -80.94026 745 ft 4 kts 184°
2026-04-26 22:01 35.22200 -80.94026 746 ft 3 kts 152°
2026-04-26 22:01 35.22191 -80.94001 745 ft 4 kts 98°
2026-04-26 22:01 35.22191 -80.93969 747 ft 4 kts 86°
2026-04-26 22:02 35.22193 -80.93937 747 ft 2 kts 86°
2026-04-26 22:02 35.22193 -80.93935 748 ft 1 kts 86°
2026-04-26 22:05 35.22194 -80.93919 749 ft 4 kts 86°
2026-04-26 22:05 35.22194 -80.93859 749 ft 10 kts 92°
2026-04-26 22:06 35.22193 -80.93761 750 ft 13 kts 95°
2026-04-26 22:06 35.22117 -80.93720 747 ft 15 kts 175°
2026-04-26 22:06 35.22001 -80.93710 745 ft 19 kts 176°
2026-04-26 22:06 35.21859 -80.93696 742 ft 21 kts 175°
2026-04-26 22:07 35.21713 -80.93685 745 ft 22 kts 176°
2026-04-26 22:07 35.21559 -80.93672 741 ft 23 kts 176°
2026-04-26 22:07 35.21397 -80.93659 743 ft 24 kts 176°
2026-04-26 22:07 35.21289 -80.93649 742 ft 23 kts 175°
2026-04-26 22:08 35.21067 -80.93630 738 ft 25 kts 176°
2026-04-26 22:08 35.20890 -80.93613 738 ft 26 kts 175°
2026-04-26 22:08 35.20704 -80.93599 737 ft 27 kts 176°
2026-04-26 22:08 35.20514 -80.93582 735 ft 27 kts 176°
2026-04-26 22:09 35.20353 -80.93568 734 ft 20 kts 175°
2026-04-26 22:09 35.20228 -80.93558 732 ft 15 kts 176°
2026-04-26 22:09 35.20170 -80.93553 732 ft 0 kts 175°
2026-04-26 22:10 35.20162 -80.93552 732 ft 3 kts 175°
2026-04-26 22:10 35.20131 -80.93544 731 ft 5 kts 158°
2026-04-26 22:10 35.20109 -80.93510 731 ft 5 kts 108°
2026-04-26 22:11 35.20107 -80.93462 731 ft 7 kts 87°
2026-04-26 22:11 35.20135 -80.93419 731 ft 7 kts 14°
2026-04-26 22:11 35.20197 -80.93422 732 ft 15 kts 356°
2026-04-26 22:11 35.20486 -80.93446 735 ft 72 kts 355°
2026-04-26 22:12 35.21226 -80.93508 742 ft 138 kts 356°
2026-04-26 22:12 35.22353 -80.93618 911 ft 177 kts 358°
2026-04-26 22:12 35.23533 -80.93629 1851 ft 169 kts 12°
2026-04-26 22:12 35.24735 -80.93287 2263 ft 188 kts 14°
2026-04-26 22:13 35.26119 -80.93410 2411 ft 215 kts 340°
2026-04-26 22:13 35.27339 -80.94598 2582 ft 239 kts 306°
2026-04-26 22:13 35.27990 -80.96569 2776 ft 263 kts 284°
2026-04-26 22:13 35.28386 -80.98809 3425 ft 273 kts 283°
2026-04-26 22:14 35.28741 -81.01082 4374 ft 271 kts 282°
2026-04-26 22:14 35.29065 -81.03331 5412 ft 266 kts 282°
2026-04-26 22:14 35.29304 -81.05580 6275 ft 270 kts 270°
2026-04-26 22:14 35.28979 -81.07859 7051 ft 276 kts 258°
2026-04-26 22:15 35.28502 -81.10172 7699 ft 284 kts 257°
2026-04-26 22:15 35.28013 -81.12537 8437 ft 289 kts 257°
2026-04-26 22:15 35.27527 -81.14945 9186 ft 294 kts 257°
2026-04-26 22:15 35.27047 -81.17406 9884 ft 301 kts 257°
2026-04-26 22:16 35.26563 -81.19942 10344 ft 316 kts 257°
2026-04-26 22:16 35.26055 -81.22654 10607 ft 335 kts 257°
2026-04-26 22:16 35.25533 -81.25475 11183 ft 343 kts 257°
2026-04-26 22:16 35.25001 -81.28361 11594 ft 358 kts 257°
2026-04-26 22:17 35.24439 -81.31429 11745 ft 379 kts 257°
2026-04-26 22:17 35.23852 -81.34651 11894 ft 398 kts 257°
2026-04-26 22:17 35.23445 -81.36871 12027 ft 408 kts 257°
2026-04-26 22:17 35.22817 -81.40295 12450 ft 416 kts 257°
2026-04-26 22:18 35.22181 -81.43758 13027 ft 419 kts 257°
2026-04-26 22:18 35.21541 -81.47241 13645 ft 421 kts 257°
2026-04-26 22:18 35.20898 -81.50739 14197 ft 423 kts 257°
2026-04-26 22:18 35.20251 -81.54253 14768 ft 424 kts 257°
2026-04-26 22:19 35.19602 -81.57764 15394 ft 423 kts 258°
2026-04-26 22:19 35.18953 -81.61273 16026 ft 422 kts 258°
2026-04-26 22:19 35.18462 -81.64794 16620 ft 421 kts 266°
2026-04-26 22:19 35.18357 -81.68374 17148 ft 422 kts 270°
2026-04-26 22:20 35.18312 -81.71965 17625 ft 424 kts 270°
2026-04-26 22:20 35.18269 -81.75583 18089 ft 427 kts 270°
2026-04-26 22:20 35.18218 -81.79214 18551 ft 428 kts 270°
2026-04-26 22:20 35.18155 -81.82853 18985 ft 429 kts 270°
2026-04-26 22:21 35.18083 -81.86503 19390 ft 430 kts 270°
2026-04-26 22:21 35.18006 -81.90169 19787 ft 432 kts 270°
2026-04-26 22:21 35.17925 -81.93848 20197 ft 434 kts 270°
2026-04-26 22:21 35.17842 -81.97537 20615 ft 435 kts 270°
2026-04-26 22:22 35.17758 -82.01239 20995 ft 437 kts 270°
2026-04-26 22:22 35.17673 -82.04956 21376 ft 438 kts 270°
2026-04-26 22:22 35.17587 -82.08687 21736 ft 440 kts 270°
2026-04-26 22:22 35.17500 -82.12430 22095 ft 442 kts 270°
2026-04-26 22:23 35.17411 -82.16189 22442 ft 443 kts 270°
2026-04-26 22:23 35.17413 -82.19957 22776 ft 444 kts 275°
2026-04-26 22:23 35.17818 -82.23692 23086 ft 444 kts 283°
2026-04-26 22:23 35.18646 -82.27319 23448 ft 444 kts 287°
2026-04-26 22:24 35.19536 -82.30941 23703 ft 446 kts 287°
2026-04-26 22:24 35.20426 -82.34582 23956 ft 448 kts 287°
2026-04-26 22:24 35.21310 -82.38236 24234 ft 448 kts 287°
2026-04-26 22:24 35.22186 -82.41901 24497 ft 450 kts 287°
2026-04-26 22:25 35.23057 -82.45579 24742 ft 451 kts 287°
2026-04-26 22:25 35.23926 -82.49271 24982 ft 452 kts 287°
2026-04-26 22:25 35.24795 -82.52977 25225 ft 454 kts 287°
2026-04-26 22:25 35.25663 -82.56688 25539 ft 453 kts 287°
2026-04-26 22:26 35.26528 -82.60388 25911 ft 451 kts 287°
2026-04-26 22:26 35.27388 -82.64071 26306 ft 449 kts 287°
2026-04-26 22:26 35.28242 -82.67736 26699 ft 447 kts 287°
2026-04-26 22:26 35.29092 -82.71387 27057 ft 445 kts 287°
2026-04-26 22:27 35.29938 -82.75024 27399 ft 445 kts 287°
2026-04-26 22:27 35.30782 -82.78659 27781 ft 443 kts 287°
2026-04-26 22:27 35.31621 -82.82279 28186 ft 441 kts 287°
2026-04-26 22:27 35.32456 -82.85884 28612 ft 439 kts 287°
2026-04-26 22:28 35.33286 -82.89475 29026 ft 437 kts 287°
2026-04-26 22:28 35.34112 -82.93055 29461 ft 435 kts 287°
2026-04-26 22:28 35.34931 -82.96611 29909 ft 433 kts 287°
2026-04-26 22:28 35.35749 -83.00162 29956 ft 436 kts 287°
2026-04-26 22:29 35.37374 -83.07238 29982 ft 432 kts 287°
2026-04-26 22:29 35.38991 -83.14303 29985 ft 429 kts 287°
2026-04-26 22:30 35.40598 -83.21340 29966 ft 428 kts 287°
2026-04-26 22:30 35.42192 -83.28347 29977 ft 427 kts 287°
2026-04-26 22:31 35.43779 -83.35369 29979 ft 427 kts 286°
2026-04-26 22:31 35.45362 -83.42395 29981 ft 427 kts 286°
2026-04-26 22:32 35.46942 -83.49427 29983 ft 428 kts 286°
2026-04-26 22:32 35.48521 -83.56470 29975 ft 429 kts 286°
2026-04-26 22:33 35.50884 -83.67054 29979 ft 429 kts 286°
2026-04-26 22:34 35.52455 -83.74118 29974 ft 429 kts 285°
2026-04-26 22:34 35.54022 -83.81184 29967 ft 429 kts 285°
2026-04-26 22:35 35.55585 -83.88253 29973 ft 428 kts 285°
2026-04-26 22:35 35.57140 -83.95308 29975 ft 427 kts 285°
2026-04-26 22:36 35.58687 -84.02347 29976 ft 427 kts 285°
2026-04-26 22:36 35.60229 -84.09389 29957 ft 427 kts 285°
2026-04-26 22:37 35.61769 -84.16435 29982 ft 426 kts 285°
2026-04-26 22:37 35.63301 -84.23473 29981 ft 426 kts 285°
2026-04-26 22:38 35.64828 -84.30508 29991 ft 426 kts 285°
2026-04-26 22:38 35.66354 -84.37555 29992 ft 426 kts 285°
2026-04-26 22:39 35.67873 -84.44597 29976 ft 426 kts 285°
2026-04-26 22:39 35.69386 -84.51633 29982 ft 426 kts 285°
2026-04-26 22:40 35.70898 -84.58679 29990 ft 426 kts 285°
2026-04-26 22:40 35.72404 -84.65727 30010 ft 426 kts 284°
2026-04-26 22:41 35.73907 -84.72778 30001 ft 426 kts 284°
2026-04-26 22:41 35.75407 -84.79839 30018 ft 426 kts 284°
2026-04-26 22:42 35.76899 -84.86888 30003 ft 426 kts 284°
2026-04-26 22:42 35.78388 -84.93942 30022 ft 425 kts 284°
2026-04-26 22:43 35.79863 -85.00948 30026 ft 425 kts 284°
2026-04-26 22:43 35.81342 -85.07998 30017 ft 425 kts 284°
2026-04-26 22:44 35.82815 -85.15043 30025 ft 424 kts 284°
2026-04-26 22:44 35.84284 -85.22086 30023 ft 424 kts 284°
2026-04-26 22:45 35.85747 -85.29129 30010 ft 424 kts 284°
2026-04-26 22:45 35.87201 -85.36170 29991 ft 424 kts 283°
2026-04-26 22:46 35.88649 -85.43211 29988 ft 424 kts 283°
2026-04-26 22:46 35.90093 -85.50250 29978 ft 424 kts 283°
2026-04-26 22:47 35.91535 -85.57301 29987 ft 423 kts 283°
2026-04-26 22:47 35.92970 -85.64337 29987 ft 423 kts 283°
2026-04-26 22:48 35.94403 -85.71389 29985 ft 423 kts 283°
2026-04-26 22:48 35.95831 -85.78436 29987 ft 423 kts 283°
2026-04-26 22:49 35.97254 -85.85482 29981 ft 423 kts 283°
2026-04-26 22:49 35.98674 -85.92533 29987 ft 424 kts 283°
2026-04-26 22:50 36.00095 -85.99601 29988 ft 424 kts 283°
2026-04-26 22:50 36.01513 -86.06676 29980 ft 425 kts 283°
2026-04-26 22:51 36.02928 -86.13761 29976 ft 424 kts 283°
2026-04-26 22:51 36.04338 -86.20849 29974 ft 425 kts 283°
2026-04-26 22:52 36.05736 -86.27894 29965 ft 425 kts 282°
2026-04-26 22:52 36.07141 -86.35000 29981 ft 426 kts 282°
2026-04-26 22:53 36.08544 -86.42121 29982 ft 426 kts 282°
2026-04-26 22:53 36.09940 -86.49230 29981 ft 426 kts 282°
2026-04-26 22:54 36.11332 -86.56343 29974 ft 425 kts 282°
2026-04-26 22:54 36.12721 -86.63457 29971 ft 425 kts 282°
2026-04-26 22:55 36.13787 -86.70628 29967 ft 424 kts 272°
2026-04-26 22:55 36.13847 -86.77917 29967 ft 424 kts 270°
2026-04-26 22:56 36.13887 -86.85199 29956 ft 423 kts 270°
2026-04-26 22:56 36.13945 -86.92486 29951 ft 423 kts 270°
2026-04-26 22:57 36.14009 -86.99769 29958 ft 423 kts 270°
2026-04-26 22:57 36.14072 -87.07041 29958 ft 423 kts 270°
2026-04-26 22:58 36.14130 -87.14328 29954 ft 423 kts 270°
2026-04-26 22:58 36.14183 -87.21614 29955 ft 423 kts 270°
2026-04-26 22:59 36.14232 -87.28895 29957 ft 423 kts 270°
2026-04-26 22:59 36.14276 -87.36176 29954 ft 423 kts 270°
2026-04-26 23:00 36.14316 -87.43450 29952 ft 423 kts 270°
2026-04-26 23:00 36.14352 -87.50717 29962 ft 422 kts 270°
2026-04-26 23:01 36.14383 -87.57969 29958 ft 422 kts 270°
2026-04-26 23:01 36.14410 -87.65225 29954 ft 422 kts 270°
2026-04-26 23:02 36.14432 -87.72433 29952 ft 422 kts 270°
2026-04-26 23:02 36.14450 -87.79689 29947 ft 422 kts 270°
2026-04-26 23:03 36.14464 -87.86944 29955 ft 422 kts 270°
2026-04-26 23:03 36.14472 -87.93018 29951 ft 422 kts 270°
2026-04-26 23:04 36.14477 -88.00275 29947 ft 422 kts 270°
2026-04-26 23:04 36.14478 -88.07534 29950 ft 422 kts 270°
2026-04-26 23:05 36.14475 -88.14800 29945 ft 422 kts 270°
2026-04-26 23:05 36.14468 -88.22011 29943 ft 422 kts 270°
2026-04-26 23:06 36.14456 -88.29275 29943 ft 422 kts 270°
2026-04-26 23:06 36.14440 -88.36538 29948 ft 422 kts 270°
2026-04-26 23:07 36.14420 -88.43793 29940 ft 422 kts 270°
2026-04-26 23:07 36.14396 -88.51055 29947 ft 422 kts 270°
2026-04-26 23:08 36.14366 -88.58317 29942 ft 422 kts 270°
2026-04-26 23:08 36.14332 -88.65577 29941 ft 422 kts 271°
2026-04-26 23:09 36.14293 -88.72836 29941 ft 422 kts 271°
2026-04-26 23:09 36.14251 -88.80091 29933 ft 421 kts 271°
2026-04-26 23:10 36.14205 -88.87340 29932 ft 421 kts 271°
2026-04-26 23:10 36.14154 -88.94582 29932 ft 421 kts 271°
2026-04-26 23:11 36.14099 -89.01813 29928 ft 420 kts 271°
2026-04-26 23:11 36.14039 -89.09040 29934 ft 420 kts 271°
2026-04-26 23:12 36.13976 -89.16260 29933 ft 419 kts 271°
2026-04-26 23:12 36.13908 -89.23468 29929 ft 419 kts 271°
2026-04-26 23:13 36.13836 -89.30622 29930 ft 418 kts 271°
2026-04-26 23:13 36.13760 -89.37814 29929 ft 418 kts 271°
2026-04-26 23:14 36.13680 -89.44991 29931 ft 417 kts 271°
2026-04-26 23:14 36.13595 -89.52167 29924 ft 417 kts 271°
2026-04-26 23:15 36.13506 -89.59327 29925 ft 416 kts 271°
2026-04-26 23:15 36.13413 -89.66466 29907 ft 415 kts 271°
2026-04-26 23:16 36.13316 -89.73601 29908 ft 414 kts 271°
2026-04-26 23:16 36.13215 -89.80734 29898 ft 414 kts 271°
2026-04-26 23:17 36.13110 -89.87842 29887 ft 413 kts 271°
2026-04-26 23:17 36.13002 -89.94943 29885 ft 412 kts 271°
2026-04-26 23:18 36.12890 -90.02034 29718 ft 413 kts 271°
2026-04-26 23:18 36.12772 -90.09212 29871 ft 421 kts 271°
2026-04-26 23:19 36.12643 -90.16530 29895 ft 430 kts 271°
2026-04-26 23:19 36.12509 -90.23888 29888 ft 430 kts 270°
2026-04-26 23:20 36.12370 -90.31279 29900 ft 429 kts 270°
2026-04-26 23:20 36.12229 -90.38660 29885 ft 429 kts 270°
2026-04-26 23:21 36.12085 -90.46030 29901 ft 428 kts 270°
2026-04-26 23:21 36.11936 -90.53378 29895 ft 428 kts 270°
2026-04-26 23:22 36.11783 -90.60732 29897 ft 427 kts 270°
2026-04-26 23:22 36.11625 -90.68078 29894 ft 427 kts 270°
2026-04-26 23:23 36.11464 -90.75417 29895 ft 427 kts 270°
2026-04-26 23:23 36.11298 -90.82748 29898 ft 426 kts 270°
2026-04-26 23:24 36.11128 -90.90066 29897 ft 426 kts 270°
2026-04-26 23:24 36.11018 -90.97386 29889 ft 425 kts 273°
2026-04-26 23:25 36.11274 -91.04680 29897 ft 424 kts 275°
2026-04-26 23:25 36.11598 -91.11963 29890 ft 424 kts 274°
2026-04-26 23:26 36.11886 -91.19248 29886 ft 424 kts 274°
2026-04-26 23:26 36.12150 -91.26533 29890 ft 424 kts 274°
2026-04-26 23:27 36.12405 -91.33819 29887 ft 424 kts 274°
2026-04-26 23:27 36.12655 -91.41058 29887 ft 424 kts 274°
2026-04-26 23:28 36.12903 -91.48340 29883 ft 424 kts 274°
2026-04-26 23:28 36.13146 -91.55624 29885 ft 424 kts 274°
2026-04-26 23:29 36.13382 -91.62901 29882 ft 423 kts 274°
2026-04-26 23:29 36.13614 -91.70177 29878 ft 423 kts 274°
2026-04-26 23:30 36.13842 -91.77449 29874 ft 423 kts 274°
2026-04-26 23:30 36.14066 -91.84716 29880 ft 423 kts 274°
2026-04-26 23:31 36.14285 -91.91982 29875 ft 423 kts 274°
2026-04-26 23:31 36.14500 -91.99250 29868 ft 423 kts 274°
2026-04-26 23:32 36.14711 -92.06513 29872 ft 423 kts 274°
2026-04-26 23:32 36.14918 -92.13795 29866 ft 424 kts 274°
2026-04-26 23:33 36.15120 -92.21085 29867 ft 424 kts 274°
2026-04-26 23:33 36.15319 -92.28382 29868 ft 425 kts 274°
2026-04-26 23:34 36.15513 -92.35693 29862 ft 425 kts 274°
2026-04-26 23:34 36.15703 -92.42993 29865 ft 425 kts 274°
2026-04-26 23:35 36.15887 -92.50298 29864 ft 425 kts 274°
2026-04-26 23:35 36.16068 -92.57598 29867 ft 424 kts 274°
2026-04-26 23:36 36.16243 -92.64846 29856 ft 424 kts 274°
2026-04-26 23:36 36.16415 -92.72138 29855 ft 424 kts 274°
2026-04-26 23:37 36.16582 -92.79431 29849 ft 424 kts 274°
2026-04-26 23:37 36.16745 -92.86711 29857 ft 423 kts 274°
2026-04-26 23:38 36.16903 -92.93984 29853 ft 423 kts 274°
2026-04-26 23:38 36.17056 -93.01262 29865 ft 423 kts 274°
2026-04-26 23:39 36.17205 -93.08536 29868 ft 423 kts 273°
2026-04-26 23:39 36.17350 -93.15799 29870 ft 423 kts 273°
2026-04-26 23:40 36.17490 -93.23070 29868 ft 422 kts 273°
2026-04-26 23:40 36.17626 -93.30346 29861 ft 423 kts 273°
2026-04-26 23:41 36.17758 -93.37614 29858 ft 423 kts 273°
2026-04-26 23:41 36.17885 -93.44897 29842 ft 423 kts 273°
2026-04-26 23:42 36.18008 -93.52184 29838 ft 423 kts 273°
2026-04-26 23:42 36.18183 -93.63094 29816 ft 423 kts 272°
2026-04-26 23:43 36.18295 -93.70373 29814 ft 422 kts 272°
2026-04-26 23:43 36.18402 -93.77636 29827 ft 421 kts 272°
2026-04-26 23:44 36.18505 -93.84883 29822 ft 421 kts 272°
2026-04-26 23:44 36.18602 -93.92110 29830 ft 420 kts 272°
2026-04-26 23:45 36.18680 -93.98112 29835 ft 419 kts 272°
2026-04-26 23:45 36.18785 -94.06543 29837 ft 419 kts 272°
2026-04-26 23:46 36.18869 -94.13755 29841 ft 419 kts 272°
2026-04-26 23:46 36.18950 -94.20975 29841 ft 420 kts 272°
2026-04-26 23:47 36.19026 -94.28215 29823 ft 421 kts 272°
2026-04-26 23:47 36.19098 -94.35475 29824 ft 422 kts 271°
2026-04-26 23:48 36.19166 -94.42753 29821 ft 423 kts 271°
2026-04-26 23:48 36.19230 -94.49997 29827 ft 424 kts 271°
2026-04-26 23:49 36.19289 -94.57303 29825 ft 425 kts 271°
2026-04-26 23:49 36.19344 -94.64623 29824 ft 425 kts 271°
2026-04-26 23:50 36.19394 -94.71939 29823 ft 426 kts 271°
2026-04-26 23:50 36.19441 -94.79283 29831 ft 427 kts 271°
2026-04-26 23:51 36.19482 -94.86632 29806 ft 427 kts 271°
2026-04-26 23:51 36.19519 -94.93977 29801 ft 426 kts 271°
2026-04-26 23:52 36.19547 -95.00066 29797 ft 426 kts 270°
2026-04-26 23:52 36.19576 -95.07393 29785 ft 425 kts 270°
2026-04-26 23:53 36.19600 -95.14715 29762 ft 425 kts 270°
2026-04-26 23:53 36.19620 -95.22034 29749 ft 425 kts 270°
2026-04-26 23:54 36.19636 -95.29335 29740 ft 424 kts 270°
2026-04-26 23:54 36.19647 -95.36635 29734 ft 424 kts 270°
2026-04-26 23:55 36.19654 -95.43925 29733 ft 423 kts 270°
2026-04-26 23:55 36.19656 -95.51207 29731 ft 423 kts 270°
2026-04-26 23:56 36.19654 -95.58486 29734 ft 422 kts 270°
2026-04-26 23:56 36.19648 -95.65738 29726 ft 421 kts 270°
2026-04-26 23:57 36.19638 -95.72990 29721 ft 421 kts 270°
2026-04-26 23:57 36.19539 -95.80221 29719 ft 420 kts 264°
2026-04-26 23:58 36.18630 -95.87368 29721 ft 420 kts 261°
2026-04-26 23:58 36.17609 -95.94481 29719 ft 419 kts 261°
2026-04-26 23:59 36.16640 -96.01586 29693 ft 419 kts 262°
2026-04-26 23:59 36.16166 -96.05154 29397 ft 421 kts 262°
2026-04-26 23:59 36.15693 -96.08733 29119 ft 421 kts 262°
2026-04-27 00:00 36.15221 -96.12301 28790 ft 420 kts 262°
2026-04-27 00:00 36.14747 -96.15876 27793 ft 421 kts 262°
2026-04-27 00:00 36.14278 -96.19401 26857 ft 422 kts 261°
2026-04-27 00:00 36.13800 -96.22986 25896 ft 423 kts 261°
2026-04-27 00:01 36.13318 -96.26584 24985 ft 424 kts 261°
2026-04-27 00:01 36.12837 -96.30164 24225 ft 421 kts 261°
2026-04-27 00:01 36.12357 -96.33726 23484 ft 419 kts 261°
2026-04-27 00:01 36.11873 -96.37308 22645 ft 416 kts 261°
2026-04-27 00:02 36.11404 -96.40770 21908 ft 411 kts 261°
2026-04-27 00:02 36.10936 -96.44223 21513 ft 400 kts 261°
2026-04-27 00:02 36.10485 -96.47543 21322 ft 384 kts 261°
2026-04-27 00:02 36.10050 -96.50745 21146 ft 370 kts 261°
2026-04-27 00:03 36.09631 -96.53820 20984 ft 357 kts 261°
2026-04-27 00:03 36.09225 -96.56794 20826 ft 345 kts 261°
2026-04-27 00:03 36.08832 -96.59662 20664 ft 334 kts 260°
2026-04-27 00:03 36.08444 -96.62490 20201 ft 333 kts 260°
2026-04-27 00:04 36.08058 -96.65297 19783 ft 330 kts 260°
2026-04-27 00:04 36.07674 -96.68092 19356 ft 329 kts 260°
2026-04-27 00:04 36.07291 -96.70870 18906 ft 328 kts 260°
2026-04-27 00:04 36.06907 -96.73656 18468 ft 328 kts 260°
2026-04-27 00:05 36.06524 -96.76426 18025 ft 328 kts 260°
2026-04-27 00:05 36.06140 -96.79199 17538 ft 327 kts 260°
2026-04-27 00:05 36.05757 -96.81965 17098 ft 325 kts 260°
2026-04-27 00:05 36.05381 -96.84676 16862 ft 317 kts 260°
2026-04-27 00:06 36.05009 -96.87345 16493 ft 314 kts 260°
2026-04-27 00:06 36.04641 -96.89990 16084 ft 312 kts 260°
2026-04-27 00:06 36.04273 -96.92626 15680 ft 310 kts 260°
2026-04-27 00:06 36.03907 -96.95243 15266 ft 309 kts 260°
2026-04-27 00:07 36.03541 -96.97857 14856 ft 308 kts 260°
2026-04-27 00:07 36.03177 -97.00456 14460 ft 307 kts 260°
2026-04-27 00:07 36.02813 -97.03048 14052 ft 306 kts 260°
2026-04-27 00:07 36.02450 -97.05636 13630 ft 306 kts 260°
2026-04-27 00:08 36.02085 -97.08223 13195 ft 305 kts 259°
2026-04-27 00:08 36.01722 -97.10793 12759 ft 304 kts 259°
2026-04-27 00:08 36.01218 -97.13319 12314 ft 303 kts 248°
2026-04-27 00:08 36.00148 -97.15547 11902 ft 303 kts 232°
2026-04-27 00:09 35.98652 -97.17388 11513 ft 304 kts 225°
2026-04-27 00:09 35.97074 -97.19113 11106 ft 303 kts 224°
2026-04-27 00:09 35.95487 -97.20818 10701 ft 302 kts 224°
2026-04-27 00:09 35.93931 -97.22497 10521 ft 293 kts 224°
2026-04-27 00:10 35.92423 -97.24137 10381 ft 284 kts 225°
2026-04-27 00:10 35.90969 -97.25729 10255 ft 275 kts 225°
2026-04-27 00:10 35.89563 -97.27274 10133 ft 266 kts 225°
2026-04-27 00:10 35.88202 -97.28771 10022 ft 258 kts 225°
2026-04-27 00:11 35.86875 -97.30232 9783 ft 255 kts 225°
2026-04-27 00:11 35.85553 -97.31688 9509 ft 254 kts 225°
2026-04-27 00:11 35.84238 -97.33135 9174 ft 255 kts 225°
2026-04-27 00:11 35.82914 -97.34593 8842 ft 255 kts 225°
2026-04-27 00:12 35.81589 -97.36049 8544 ft 254 kts 224°
2026-04-27 00:12 35.80270 -97.37500 8244 ft 254 kts 224°
2026-04-27 00:12 35.78957 -97.38942 7964 ft 253 kts 224°
2026-04-27 00:12 35.77644 -97.40384 7680 ft 252 kts 224°
2026-04-27 00:13 35.76336 -97.41819 7394 ft 251 kts 223°
2026-04-27 00:13 35.75053 -97.43226 7127 ft 250 kts 223°
2026-04-27 00:13 35.73729 -97.44650 6847 ft 249 kts 220°
2026-04-27 00:13 35.72354 -97.45926 6642 ft 247 kts 218°
2026-04-27 00:14 35.70964 -97.47160 6372 ft 246 kts 217°
2026-04-27 00:14 35.69596 -97.48370 6108 ft 245 kts 217°
2026-04-27 00:14 35.68221 -97.49592 5824 ft 243 kts 217°
2026-04-27 00:14 35.66854 -97.50810 5553 ft 242 kts 216°
2026-04-27 00:15 35.65509 -97.52013 5290 ft 236 kts 216°
2026-04-27 00:15 35.64209 -97.53178 5060 ft 226 kts 216°
2026-04-27 00:15 35.62974 -97.54286 4796 ft 214 kts 216°
2026-04-27 00:15 35.61817 -97.55325 4662 ft 197 kts 215°
2026-04-27 00:16 35.60732 -97.56299 4561 ft 190 kts 215°
2026-04-27 00:16 35.59683 -97.57240 4464 ft 183 kts 214°
2026-04-27 00:16 35.58679 -97.58139 4366 ft 175 kts 215°
2026-04-27 00:16 35.57707 -97.59011 4305 ft 170 kts 214°
2026-04-27 00:17 35.56764 -97.59847 3928 ft 166 kts 210°
2026-04-27 00:17 35.55670 -97.60232 3452 ft 165 kts 186°
2026-04-27 00:17 35.54591 -97.60374 3330 ft 147 kts 187°
2026-04-27 00:17 35.53587 -97.60506 3016 ft 144 kts 184°
2026-04-27 00:18 35.52623 -97.60559 3039 ft 136 kts 183°
2026-04-27 00:18 35.51682 -97.60576 2997 ft 132 kts 182°
2026-04-27 00:18 35.50766 -97.60581 2997 ft 132 kts 181°
2026-04-27 00:18 35.49836 -97.60582 2991 ft 134 kts 180°
2026-04-27 00:19 35.48901 -97.60581 2874 ft 134 kts 180°
2026-04-27 00:19 35.47980 -97.60580 2706 ft 131 kts 181°
2026-04-27 00:19 35.47063 -97.60579 2549 ft 133 kts 181°
2026-04-27 00:19 35.46128 -97.60579 2393 ft 134 kts 181°
2026-04-27 00:20 35.45181 -97.60583 2225 ft 139 kts 182°
2026-04-27 00:20 35.44216 -97.60599 2052 ft 140 kts 180°
2026-04-27 00:20 35.43243 -97.60595 1852 ft 140 kts 179°
2026-04-27 00:20 35.42282 -97.60578 1623 ft 134 kts 177°
2026-04-27 00:21 35.41342 -97.60553 1451 ft 135 kts 179°
2026-04-27 00:21 35.40428 -97.60571 1312 ft 128 kts 178°
2026-04-27 00:21 35.39632 -97.60570 1281 ft 91 kts 181°
2026-04-27 00:21 35.39223 -97.60570 1286 ft 28 kts 180°
2026-04-27 00:22 35.39055 -97.60567 1286 ft 17 kts 169°
2026-04-27 00:22 35.38980 -97.60478 1288 ft 13 kts 101°
2026-04-27 00:22 35.38978 -97.60430 1287 ft 0 kts 90°
2026-04-27 00:24 35.38978 -97.60410 1287 ft 5 kts 91°
2026-04-27 00:24 35.38977 -97.60342 1287 ft 10 kts 90°
2026-04-27 00:24 35.38978 -97.60246 1288 ft 12 kts 90°
2026-04-27 00:24 35.38978 -97.60145 1292 ft 12 kts 90°
2026-04-27 00:25 35.38977 -97.60043 1294 ft 12 kts 89°
2026-04-27 00:25 35.38978 -97.59924 1293 ft 16 kts 90°
2026-04-27 00:25 35.38978 -97.59767 1290 ft 21 kts 90°
2026-04-27 00:25 35.38978 -97.59611 1291 ft 11 kts 88°
2026-04-27 00:26 35.39020 -97.59539 1291 ft 11 kts 20°
2026-04-27 00:26 35.39096 -97.59533 1290 ft 11 kts 359°
2026-04-27 00:26 35.39171 -97.59534 1292 ft 11 kts
2026-04-27 00:26 35.39244 -97.59534 1295 ft 10 kts
2026-04-27 00:27 35.39316 -97.59534 1297 ft 10 kts 360°
2026-04-27 00:27 35.39377 -97.59569 1298 ft 11 kts 303°
2026-04-27 00:27 35.39392 -97.59685 1296 ft 17 kts 284°
2026-04-27 00:27 35.39417 -97.59847 1293 ft 22 kts 269°
2026-04-27 00:28 35.39428 -97.59977 1290 ft 12 kts 302°
2026-04-27 00:28 35.39489 -97.60053 1288 ft 13 kts 316°
2026-04-27 00:28 35.39561 -97.60114 1291 ft 9 kts
2026-04-27 00:28 35.39575 -97.60065 1288 ft 6 kts 101°
2026-04-27 00:29 35.39554 -97.60020 1289 ft 6 kts 118°
2026-04-27 00:29 35.39542 -97.59992 1290 ft 2 kts 117°
2026-04-27 00:29 35.39537 -97.59982 1290 ft 0 kts 117°
2026-04-27 00:33 35.39541 -97.59990 1290 ft 0 kts 117°